Location: Les Salelles
(44.4192°N, 4.1044°E)
Time: 10:34:05
(UTC+00:00)

Cosmos 158 Rocket - Pass Details

Date: 20 January 2021
Orbit: 698 x 794 km, 74.0° (Epoch: 28 February)

Event Time Altitude Azimuth Distance (km) Brightness Sun altitude
Rises 18:15:02 0° 341° (NNW) 3,260 7.4 -17.3°
Reaches altitude 10° 18:17:26 10° 345° (NNW) 2,340 6.6 -17.8°
Maximum altitude 18:22:44 64° 67° (ENE) 874 4.0 -18.7°
Drops below altitude 10° 18:28:04 10° 149° (SSE) 2,355 6.3 -19.6°
Sets 18:30:29 0° 152° (SSE) 3,282 7.1 -20.1°
